Vorticity
7 7 7 7 7 6 6 5 5 5 6 6 5 6 7 7 7 7 6 6 4 2 6 3 3 7 13
7 8 8 4 6 6 6 6 6 7 7 5 5 6 7 7 6 6 6 6 5 6 5 3 0 2 7
9 -1 6 13 7 7 6 5 6 7 7 8 8 9 8 7 7 7 7 7 7 6 6 3 3 2 4
8 12 14 11 8 7 10 10 11 10 9 9 9 8 8 8 8 8 8 6 7 7 7 6 3 2 2
11 13 13 10 9 9 9 9 9 9 9 9 9 9 8 9 9 8 7 10 9 7 8 6 4 3 2
12 13 11 9 8 8 8 9 9 8 9 9 10 9 9 8 9 9 11 11 10 9 7 6 5 5 3
12 11 11 8 6 10 11 10 10 11 10 9 9 9 9 11 12 10 10 9 10 10 8 7 7 7 4
11 15 16 12 8 9 8 9 10 10 9 10 10 9 9 10 10 12 11 10 10 9 9 10 9 6 5
11 11 15 9 6 7 8 8 9 10 11 9 9 9 9 10 10 9 8 9 11 11 11 10 9 9 10
11 10 18 17 11 10 8 8 9 9 9 9 10 10 12 12 12 12 12 14 14 14 13 13 14 15 15
14 14 12 11 8 8 8 9 9 9 10 11 12 14 15 16 15 16 15 16 17 16 16 16 15 15 16
12 12 15 11 12 7 8 10 11 10 12 15 18 20 21 20 19 19 18 19 20 19 17 15 15 14 14
16 16 13 -1 8 11 11 11 10 15 21 22 17 9 8 9 9 11 10 9 14 18 22 22 18 17 14
15 17 18 13 9 10 11 9 19 22 14 7 6 6 3 4 4 3 4 7 7 5 4 16 23 21 18
13 12 7 7 10 12 9 20 16 12 6 3 4 3 4 4 3 2 3 4 4 8 5 3 6 13 22
15 7 5 11 12 8 21 13 11 5 1 2 5 6 5 3 4 3 3 5 4 6 2 6 4 6 9
6 7 10 12 9 18 11 8 7 3 0 4 6 7 6 3 0 2 3 2 4 2 10 4 3 1 6
Height
3131 3131 3131 3131 3131 3130 3129 3129 3129 3128 3127 3126 3124 3123 3122 3121 3119 3117 3116 3113 3111 3108 3105 3101 3098 3094 3090
3123 3124 3124 3124 3124 3123 3123 3122 3122 3121 3120 3119 3118 3117 3115 3114 3113 3111 3110 3108 3106 3103 3100 3096 3093 3089 3086
3114 3115 3115 3116 3115 3115 3115 3115 3114 3113 3113 3112 3111 3110 3109 3108 3107 3105 3104 3102 3100 3098 3095 3091 3088 3085 3081
3105 3105 3106 3107 3107 3108 3107 3107 3107 3106 3105 3105 3104 3103 3102 3101 3101 3099 3098 3096 3094 3092 3089 3087 3083 3080 3077
3095 3096 3097 3098 3098 3099 3098 3098 3098 3098 3097 3097 3096 3096 3095 3094 3092 3092 3091 3089 3087 3086 3084 3082 3078 3074 3071
3085 3086 3088 3089 3090 3090 3090 3090 3091 3092 3090 3091 3089 3088 3087 3087 3085 3085 3084 3083 3081 3080 3078 3075 3072 3068 3065
3075 3077 3078 3080 3081 3082 3083 3083 3083 3084 3084 3083 3083 3081 3081 3081 3079 3077 3076 3075 3073 3072 3071 3069 3066 3062 3059
3066 3068 3069 3070 3071 3073 3074 3075 3076 3077 3077 3076 3076 3075 3074 3073 3072 3071 3069 3067 3066 3064 3063 3061 3059 3056 3052
3056 3058 3060 3061 3063 3065 3066 3067 3068 3069 3069 3068 3068 3068 3067 3066 3064 3063 3061 3060 3058 3056 3054 3052 3051 3049 3047
3046 3048 3050 3052 3053 3056 3058 3060 3060 3061 3062 3062 3061 3060 3060 3058 3057 3056 3054 3052 3051 3049 3046 3044 3042 3041 3040
3036 3038 3041 3043 3045 3048 3051 3052 3052 3053 3054 3054 3054 3053 3053 3052 3050 3049 3048 3047 3045 3043 3040 3038 3035 3033 3032
3026 3029 3032 3035 3039 3041 3043 3044 3045 3047 3047 3048 3048 3048 3048 3047 3047 3046 3044 3043 3041 3038 3035 3033 3030 3028 3024
3017 3020 3024 3027 3030 3033 3036 3037 3039 3040 3041 3042 3043 3044 3045 3044 3044 3043 3043 3041 3039 3036 3032 3029 3027 3024 3022
3008 3012 3016 3020 3024 3026 3028 3031 3033 3035 3037 3038 3040 3041 3041 3042 3042 3041 3040 3039 3037 3035 3032 3028 3025 3021 3017
3001 3004 3009 3013 3016 3019 3022 3024 3027 3030 3033 3035 3037 3037 3038 3039 3039 3039 3038 3036 3035 3034 3032 3028 3024 3020 3015
2994 2998 3002 3005 3008 3012 3016 3019 3022 3026 3028 3031 3032 3033 3035 3036 3036 3036 3035 3034 3033 3031 3029 3027 3023 3019 3014
2987 2991 2994 2998 3002 3005 3009 3013 3017 3021 3023 3026 3027 3029 3030 3031 3032 3032 3031 3031 3030 3028 3026 3024 3022 3018 3014